• în România
  • Lista ţărilor
  • Pe 7 zile
  • Temperatura apei
  • Hartă satelitară
  • Meteo pe hartă
  • Widget-uri
  • user-avatar
    Intrare

    Meteo pe oră la Borşa

    Astăzi, 18 Iunie, Luni

    Timp Temperatura Precipitaţii Vânt Presiune Umiditate
    00:00 +14°C° 0,1 mm 1 m/s 681 mmHg 96%
    01:00 +14°C° 0,1 mm 1 m/s 681 mmHg 96%
    02:00 +14°C° 0 mm 1 m/s 681 mmHg 96%
    03:00 +14°C° 0,8 mm 1 m/s 681 mmHg 96%
    04:00 +14°C° 0,8 mm 1 m/s 681 mmHg 97%
    05:00 +14°C° 0,8 mm 1 m/s 681 mmHg 97%
    06:00 +15°C° 0,6 mm 1 m/s 681 mmHg 95%
    07:00 +16°C° 0,6 mm 1 m/s 682 mmHg 93%
    08:00 +18°C° 0 mm 1 m/s 682 mmHg 90%
    09:00 +19°C° 0,5 mm 1 m/s 682 mmHg 87%
    10:00 +20°C° 0,5 mm 1 m/s 682 mmHg 83%
    11:00 +21°C° 0,5 mm 1 m/s 682 mmHg 80%
    12:00 +21°C° 1,1 mm 1 m/s 682 mmHg 79%
    13:00 +21°C° 1,1 mm 2 m/s 683 mmHg 78%
    14:00 +21°C° 1,1 mm 2 m/s 683 mmHg 77%
    15:00 +21°C° 0,8 mm 2 m/s 683 mmHg 75%
    16:00 +21°C° 0,8 mm 2 m/s 683 mmHg 74%
    17:00 +23°C° 0,8 mm 2 m/s 683 mmHg 73%
    18:00 +20°C° 0,8 mm 2 m/s 683 mmHg 78%
    19:00 +20°C° 0,8 mm 1 m/s 682 mmHg 83%
    20:00 +18°C° 0,8 mm 1 m/s 682 mmHg 89%
    21:00 +16°C° 0,4 mm 1 m/s 682 mmHg 90%
    22:00 +15°C° 0,4 mm 1 m/s 683 mmHg 92%
    23:00 +14°C° 0,4 mm 1 m/s 683 mmHg 94%

    Mâine, 19 Iunie, Marţi

    Timp Temperatura Precipitaţii Vânt Presiune Umiditate
    00:00 +14°C° 0 mm 1 m/s 683 mmHg 94%
    01:00 +14°C° 0 mm 1 m/s 683 mmHg 94%
    02:00 +13°C° 0 mm 1 m/s 683 mmHg 94%
    03:00 +13°C° 0 mm 1 m/s 683 mmHg 94%
    04:00 +13°C° 0 mm 1 m/s 683 mmHg 94%
    05:00 +13°C° 0 mm 1 m/s 683 mmHg 94%
    06:00 +15°C° 0 mm 1 m/s 684 mmHg 87%
    07:00 +19°C° 0 mm 1 m/s 685 mmHg 81%
    08:00 +21°C° 0 mm 1 m/s 686 mmHg 75%
    09:00 +23°C° 0 mm 1 m/s 686 mmHg 65%
    10:00 +24°C° 0 mm 1 m/s 687 mmHg 56%
    11:00 +26°C° 0 mm 1 m/s 687 mmHg 46%
    12:00 +26°C° 0 mm 2 m/s 687 mmHg 46%
    13:00 +26°C° 0 mm 2 m/s 687 mmHg 47%
    14:00 +26°C° 0 mm 2 m/s 687 mmHg 47%
    15:00 +26°C° 0,1 mm 2 m/s 687 mmHg 50%
    16:00 +25°C° 0,1 mm 2 m/s 686 mmHg 53%
    17:00 +25°C° 0,1 mm 2 m/s 686 mmHg 57%
    18:00 +23°C° 0,1 mm 2 m/s 686 mmHg 66%
    19:00 +21°C° 0,1 mm 1 m/s 686 mmHg 75%
    20:00 +19°C° 0,1 mm 1 m/s 686 mmHg 84%
    21:00 +18°C° 0 mm 1 m/s 686 mmHg 86%
    22:00 +16°C° 0 mm 1 m/s 686 mmHg 88%
    23:00 +15°C° 0 mm 1 m/s 686 mmHg 90%

    Poimâine, 20 Iunie, Miercuri

    Timp Temperatura Precipitaţii Vânt Presiune Umiditate
    00:00 +15°C° 0 mm 1 m/s 686 mmHg 90%
    01:00 +14°C° 0 mm 1 m/s 686 mmHg 90%
    02:00 +14°C° 0 mm 1 m/s 686 mmHg 91%
    03:00 +14°C° 0 mm 1 m/s 686 mmHg 90%
    04:00 +13°C° 0 mm 1 m/s 686 mmHg 89%
    05:00 +13°C° 0 mm 1 m/s 686 mmHg 88%
    06:00 +16°C° 0 mm 1 m/s 687 mmHg 80%
    07:00 +19°C° 0 mm 1 m/s 688 mmHg 71%
    08:00 +22°C° 0 mm 1 m/s 688 mmHg 63%
    09:00 +24°C° 0 mm 1 m/s 689 mmHg 58%
    10:00 +25°C° 0 mm 1 m/s 689 mmHg 52%
    11:00 +27°C° 0 mm 1 m/s 689 mmHg 47%
    12:00 +27°C° 0,2 mm 1 m/s 689 mmHg 51%
    13:00 +26°C° 0,2 mm 1 m/s 689 mmHg 55%
    14:00 +26°C° 0,2 mm 1 m/s 688 mmHg 59%
    15:00 +25°C° 0,6 mm 1 m/s 688 mmHg 63%
    16:00 +25°C° 0,6 mm 1 m/s 688 mmHg 66%
    17:00 +25°C° 0,6 mm 1 m/s 687 mmHg 70%
    18:00 +23°C° 0,7 mm 1 m/s 687 mmHg 75%
    19:00 +21°C° 0,7 mm 1 m/s 687 mmHg 81%
    20:00 +18°C° 0,7 mm 0 m/s 687 mmHg 86%
    21:00 +19°C° 0,2 mm 1 m/s 687 mmHg 88%
    22:00 +18°C° 0,2 mm 1 m/s 687 mmHg 90%
    23:00 +16°C° 0,2 mm 1 m/s 687 mmHg 91%

    21 Iunie, Joi

    Timp Temperatura Precipitaţii Vânt Presiune Umiditate
    00:00 +16°C° 0,3 mm 1 m/s 687 mmHg 92%
    01:00 +16°C° 0,3 mm 1 m/s 686 mmHg 92%
    02:00 +15°C° 0,3 mm 1 m/s 686 mmHg 93%
    03:00 +15°C° 0,4 mm 1 m/s 686 mmHg 93%
    04:00 +15°C° 0,4 mm 1 m/s 686 mmHg 93%
    05:00 +15°C° 0,4 mm 1 m/s 686 mmHg 93%
    06:00 +18°C° 0,1 mm 1 m/s 686 mmHg 89%
    07:00 +19°C° 0,1 mm 1 m/s 686 mmHg 85%
    08:00 +19°C° 0,1 mm 0 m/s 686 mmHg 82%
    09:00 +22°C° 0,7 mm 1 m/s 686 mmHg 77%
    10:00 +24°C° 0,7 mm 1 m/s 686 mmHg 72%
    11:00 +25°C° 0,7 mm 1 m/s 686 mmHg 68%
    12:00 +25°C° 1,2 mm 1 m/s 686 mmHg 68%
    13:00 +25°C° 1,2 mm 1 m/s 685 mmHg 69%
    14:00 +25°C° 1,2 mm 1 m/s 685 mmHg 70%
    15:00 +25°C° 0,4 mm 1 m/s 684 mmHg 72%
    16:00 +24°C° 0,4 mm 1 m/s 684 mmHg 75%
    17:00 +22°C° 0,4 mm 0 m/s 683 mmHg 77%
    18:00 +23°C° 0,2 mm 1 m/s 683 mmHg 80%
    19:00 +21°C° 0,2 mm 1 m/s 683 mmHg 83%
    20:00 +20°C° 0,2 mm 1 m/s 682 mmHg 85%
    21:00 +19°C° 0,1 mm 1 m/s 682 mmHg 87%
    22:00 +18°C° 0,1 mm 1 m/s 682 mmHg 89%
    23:00 +16°C° 0,1 mm 1 m/s 682 mmHg 90%

    22 Iunie, Vineri

    Timp Temperatura Precipitaţii Vânt Presiune Umiditate
    00:00 +16°C° 0,6 mm 1 m/s 681 mmHg 91%
    01:00 +16°C° 0,6 mm 1 m/s 681 mmHg 92%
    02:00 +15°C° 0,6 mm 1 m/s 681 mmHg 92%
    03:00 +15°C° 0,2 mm 1 m/s 680 mmHg 92%
    04:00 +15°C° 0,2 mm 1 m/s 680 mmHg 92%
    05:00 +15°C° 0,2 mm 1 m/s 680 mmHg 92%
    06:00 +18°C° 0,2 mm 1 m/s 680 mmHg 88%
    07:00 +19°C° 0,2 mm 1 m/s 680 mmHg 84%
    08:00 +21°C° 0,2 mm 1 m/s 680 mmHg 81%
    09:00 +22°C° 0,5 mm 1 m/s 681 mmHg 76%
    10:00 +23°C° 0,5 mm 1 m/s 681 mmHg 72%
    11:00 +24°C° 0,5 mm 1 m/s 681 mmHg 67%
    12:00 +23°C° 1 mm 1 m/s 681 mmHg 71%
    13:00 +23°C° 1 mm 1 m/s 681 mmHg 75%
    14:00 +22°C° 1 mm 1 m/s 680 mmHg 79%
    15:00 +20°C° 1,5 mm 2 m/s 680 mmHg 83%
    16:00 +19°C° 1,5 mm 2 m/s 680 mmHg 87%
    17:00 +18°C° 1,5 mm 2 m/s 680 mmHg 91%
    18:00 +17°C° 0,9 mm 2 m/s 681 mmHg 92%
    19:00 +15°C° 0,9 mm 2 m/s 681 mmHg 94%
    20:00 +14°C° 0,9 mm 2 m/s 681 mmHg 96%
    21:00 +13°C° 0,3 mm 2 m/s 681 mmHg 96%
    22:00 +12°C° 0,3 mm 1 m/s 681 mmHg 96%
    23:00 +11°C° 0,3 mm 1 m/s 681 mmHg 96%

    23 Iunie, Sâmbătă

    Timp Temperatura Precipitaţii Vânt Presiune Umiditate
    00:00 +11°C° 0,2 mm 1 m/s 681 mmHg 96%
    01:00 +10°C° 0,2 mm 1 m/s 681 mmHg 96%
    02:00 +10°C° 0,2 mm 1 m/s 682 mmHg 95%
    03:00 +9°C° 0,3 mm 1 m/s 682 mmHg 95%
    04:00 +9°C° 0,3 mm 1 m/s 682 mmHg 95%
    05:00 +8°C° 0,3 mm 1 m/s 682 mmHg 95%
    06:00 +9°C° 0,1 mm 1 m/s 682 mmHg 92%
    07:00 +10°C° 0,1 mm 1 m/s 682 mmHg 88%
    08:00 +11°C° 0,1 mm 1 m/s 683 mmHg 84%
    09:00 +12°C° 0 mm 1 m/s 683 mmHg 77%
    10:00 +14°C° 0 mm 1 m/s 683 mmHg 71%
    11:00 +15°C° 0 mm 1 m/s 683 mmHg 64%
    12:00 +15°C° 0 mm 2 m/s 683 mmHg 60%
    13:00 +16°C° 0 mm 2 m/s 683 mmHg 56%
    14:00 +17°C° 0 mm 2 m/s 683 mmHg 51%
    15:00 +16°C° 0 mm 2 m/s 683 mmHg 53%
    16:00 +16°C° 0 mm 2 m/s 683 mmHg 54%
    17:00 +16°C° 0 mm 3 m/s 683 mmHg 55%
    18:00 +14°C° 0 mm 2 m/s 683 mmHg 64%
    19:00 +13°C° 0 mm 1 m/s 683 mmHg 72%
    20:00 +11°C° 0 mm 1 m/s 682 mmHg 80%
    21:00 +10°C° 0 mm 1 m/s 683 mmHg 84%
    22:00 +9°C° 0 mm 1 m/s 683 mmHg 87%
    23:00 +7°C° 0 mm 0 m/s 683 mmHg 91%
    Arată mai mult